Time,TemperatureF,DewpointF,PressureIn,WindDirection,WindDirectionDegrees,WindSpeedMPH,WindSpeedGustMPH,Humidity,HourlyPrecipIn,Conditions,Clouds,dailyrainin,SoftwareType,DateUTC
2013-03-01 00:00:00,29.5,26.1,30.14,WNW,303,3.0,7.0,87,0.00,,,0.09,Wunderground v.1.15,2013-03-01 06:00:00,
2013-03-01 00:06:00,29.5,26.1,30.14,NW,306,3.0,7.0,87,0.00,,,0.00,Wunderground v.1.15,2013-03-01 06:06:00,
2013-03-01 00:12:00,29.4,26.0,30.14,NW,314,3.0,7.0,87,0.00,,,0.00,Wunderground v.1.15,2013-03-01 06:12:00,
2013-03-01 00:18:00,29.4,26.0,30.14,NW,313,3.0,7.0,87,0.00,,,0.00,Wunderground v.1.15,2013-03-01 06:18:00,
2013-03-01 00:24:00,29.3,25.9,30.14,NW,315,3.0,7.0,87,0.00,,,0.00,Wunderground v.1.15,2013-03-01 06:24:00,
2013-03-01 00:30:00,29.3,25.9,30.14,NW,315,3.0,3.0,87,0.00,,,0.00,Wunderground v.1.15,2013-03-01 06:30:00,
2013-03-01 00:36:00,29.2,25.8,30.14,NW,318,3.0,7.0,87,0.00,,,0.00,Wunderground v.1.15,2013-03-01 06:36:00,
2013-03-01 00:42:00,29.2,25.8,30.14,NW,319,3.0,7.0,87,0.00,,,0.00,Wunderground v.1.15,2013-03-01 06:42:00,
2013-03-01 00:48:00,29.2,25.8,30.14,NW,317,3.0,7.0,87,0.00,,,0.00,Wunderground v.1.15,2013-03-01 06:48:00,
2013-03-01 00:54:00,29.2,25.8,30.14,NW,317,3.0,7.0,87,0.00,,,0.00,Wunderground v.1.15,2013-03-01 06:54:00,
2013-03-01 01:00:00,29.1,25.7,30.15,NW,317,3.0,3.0,87,0.00,,,0.00,Wunderground v.1.15,2013-03-01 07:00:00,
2013-03-01 01:06:00,29.1,25.7,30.14,NW,315,3.0,6.0,87,0.00,,,0.00,Wunderground v.1.15,2013-03-01 07:06:00,
2013-03-01 01:12:00,29.1,25.7,30.15,NW,314,3.0,4.0,87,0.00,,,0.00,Wunderground v.1.15,2013-03-01 07:12:00,
2013-03-01 01:18:00,29.0,25.6,30.15,NW,314,3.0,4.0,87,0.00,,,0.00,Wunderground v.1.15,2013-03-01 07:18:00,
2013-03-01 01:24:00,29.0,25.6,30.14,NW,316,2.0,5.0,87,0.00,,,0.00,Wunderground v.1.15,2013-03-01 07:24:00,
2013-03-01 01:30:00,29.0,25.6,30.14,NW,313,3.0,5.0,87,0.00,,,0.00,Wunderground v.1.15,2013-03-01 07:30:00,
2013-03-01 01:36:00,28.9,25.5,30.14,NW,311,4.0,5.0,87,0.00,,,0.00,Wunderground v.1.15,2013-03-01 07:36:00,
2013-03-01 01:42:00,28.9,25.5,30.14,NW,311,3.0,4.0,87,0.00,,,0.00,Wunderground v.1.15,2013-03-01 07:42:00,
2013-03-01 01:48:00,28.8,25.4,30.14,NW,312,3.0,5.0,87,0.00,,,0.00,Wunderground v.1.15,2013-03-01 07:48:00,
2013-03-01 01:54:00,28.8,25.4,30.14,NW,310,3.0,3.0,87,0.00,,,0.00,Wunderground v.1.15,2013-03-01 07:54:00,
2013-03-01 02:00:00,28.8,25.4,30.14,NW,310,3.0,6.0,87,0.00,,,0.00,Wunderground v.1.15,2013-03-01 08:00:00,
2013-03-01 02:06:00,28.7,25.3,30.14,NW,309,3.0,6.0,87,0.00,,,0.00,Wunderground v.1.15,2013-03-01 08:06:00,
2013-03-01 02:12:00,28.7,25.3,30.14,NW,309,2.0,6.0,87,0.00,,,0.00,Wunderground v.1.15,2013-03-01 08:12:00,
2013-03-01 02:18:00,28.7,25.3,30.13,NW,309,2.0,6.0,87,0.00,,,0.00,Wunderground v.1.15,2013-03-01 08:18:00,
2013-03-01 02:24:00,28.7,25.3,30.13,NW,309,3.0,6.0,87,0.00,,,0.00,Wunderground v.1.15,2013-03-01 08:24:00,
2013-03-01 02:30:00,28.7,25.3,30.13,NW,309,3.0,3.0,87,0.00,,,0.00,Wunderground v.1.15,2013-03-01 08:30:00,
2013-03-01 02:36:00,28.7,25.3,30.13,NW,309,2.0,6.0,87,0.00,,,0.00,Wunderground v.1.15,2013-03-01 08:36:00,
2013-03-01 02:42:00,28.7,25.3,30.13,NW,314,3.0,8.0,87,0.00,,,0.00,Wunderground v.1.15,2013-03-01 08:42:00,
2013-03-01 02:48:00,28.6,25.2,30.13,NW,315,3.0,8.0,87,0.00,,,0.00,Wunderground v.1.15,2013-03-01 08:48:00,
2013-03-01 02:54:00,28.6,25.2,30.13,NW,315,3.0,6.0,87,0.00,,,0.00,Wunderground v.1.15,2013-03-01 08:54:00,
2013-03-01 03:00:00,28.6,25.2,30.13,NW,314,3.0,6.0,87,0.00,,,0.00,Wunderground v.1.15,2013-03-01 09:00:00,
2013-03-01 03:06:00,28.5,25.1,30.13,NW,315,3.0,6.0,87,0.00,,,0.00,Wunderground v.1.15,2013-03-01 09:06:00,
2013-03-01 03:12:00,28.5,25.1,30.13,NW,316,3.0,4.0,87,0.00,,,0.00,Wunderground v.1.15,2013-03-01 09:12:00,
2013-03-01 03:18:00,28.5,25.1,30.13,NNW,329,4.0,6.0,87,0.00,,,0.00,Wunderground v.1.15,2013-03-01 09:18:00,
2013-03-01 03:24:00,28.4,25.0,30.13,NNW,337,4.0,6.0,87,0.00,,,0.00,Wunderground v.1.15,2013-03-01 09:24:00,
2013-03-01 03:30:00,28.3,24.9,30.13,NNW,331,4.0,4.0,87,0.00,,,0.00,Wunderground v.1.15,2013-03-01 09:30:00,
2013-03-01 03:36:00,28.3,24.9,30.13,NW,326,3.0,6.0,87,0.00,,,0.00,Wunderground v.1.15,2013-03-01 09:36:00,
2013-03-01 03:42:00,28.2,24.8,30.13,NW,322,4.0,6.0,87,0.00,,,0.00,Wunderground v.1.15,2013-03-01 09:42:00,
2013-03-01 03:48:00,28.2,24.8,30.13,NW,321,3.0,7.0,87,0.00,,,0.00,Wunderground v.1.15,2013-03-01 09:48:00,
2013-03-01 03:54:00,28.1,24.7,30.13,NNW,327,3.0,6.0,87,0.00,,,0.00,Wunderground v.1.15,2013-03-01 09:54:00,
2013-03-01 04:00:00,28.1,24.7,30.13,NW,323,3.0,4.0,87,0.00,,,0.00,Wunderground v.1.15,2013-03-01 10:00:00,
2013-03-01 04:06:00,28.0,24.6,30.13,NW,323,3.0,4.0,87,0.00,,,0.00,Wunderground v.1.15,2013-03-01 10:06:00,
2013-03-01 04:12:00,28.0,24.6,30.13,NW,323,2.0,3.0,87,0.00,,,0.00,Wunderground v.1.15,2013-03-01 10:12:00,
2013-03-01 04:18:00,28.0,24.6,30.13,NW,321,3.0,4.0,87,0.00,,,0.00,Wunderground v.1.15,2013-03-01 10:18:00,
2013-03-01 04:24:00,27.9,24.5,30.13,NW,319,3.0,5.0,87,0.00,,,0.00,Wunderground v.1.15,2013-03-01 10:24:00,
2013-03-01 04:30:00,27.8,24.4,30.13,NW,319,3.0,3.0,87,0.00,,,0.00,Wunderground v.1.15,2013-03-01 10:30:00,
2013-03-01 04:36:00,27.7,24.3,30.13,NW,318,3.0,4.0,87,0.00,,,0.00,Wunderground v.1.15,2013-03-01 10:36:00,
2013-03-01 04:42:00,27.6,24.2,30.13,NW,318,2.0,2.0,87,0.00,,,0.00,Wunderground v.1.15,2013-03-01 10:42:00,
2013-03-01 04:48:00,27.6,24.2,30.14,NW,318,2.0,3.0,87,0.00,,,0.00,Wunderground v.1.15,2013-03-01 10:48:00,
2013-03-01 04:54:00,27.6,24.2,30.14,NW,318,2.0,4.0,87,0.00,,,0.00,Wunderground v.1.15,2013-03-01 10:54:00,
2013-03-01 05:00:00,27.5,24.1,30.14,NW,318,1.0,8.0,87,0.00,,,0.00,Wunderground v.1.15,2013-03-01 11:00:00,
2013-03-01 05:06:00,27.5,24.1,30.14,NW,318,2.0,8.0,87,0.00,,,0.00,Wunderground v.1.15,2013-03-01 11:06:00,
2013-03-01 05:12:00,27.5,24.1,30.14,NW,315,2.0,8.0,87,0.00,,,0.00,Wunderground v.1.15,2013-03-01 11:12:00,
2013-03-01 05:18:00,27.5,24.1,30.14,NW,315,3.0,8.0,87,0.00,,,0.00,Wunderground v.1.15,2013-03-01 11:18:00,
2013-03-01 05:24:00,27.5,24.1,30.14,NW,312,3.0,8.0,87,0.00,,,0.00,Wunderground v.1.15,2013-03-01 11:24:00,
2013-03-01 05:30:00,27.6,24.2,30.13,NW,313,3.0,8.0,87,0.00,,,0.00,Wunderground v.1.15,2013-03-01 11:30:00,
2013-03-01 05:36:00,27.6,24.2,30.13,NW,313,3.0,8.0,87,0.00,,,0.00,Wunderground v.1.15,2013-03-01 11:36:00,
2013-03-01 05:42:00,27.6,24.2,30.14,NW,313,4.0,5.0,87,0.00,,,0.00,Wunderground v.1.15,2013-03-01 11:42:00,
2013-03-01 05:48:00,27.6,24.2,30.13,NW,317,4.0,8.0,87,0.00,,,0.00,Wunderground v.1.15,2013-03-01 11:48:00,
2013-03-01 05:54:00,27.6,24.2,30.14,NW,315,3.0,8.0,87,0.00,,,0.00,Wunderground v.1.15,2013-03-01 11:54:00,
2013-03-01 06:00:00,27.6,24.2,30.14,NW,315,3.0,3.0,87,0.00,,,0.00,Wunderground v.1.15,2013-03-01 12:00:00,
2013-03-01 06:06:00,27.6,24.2,30.14,NW,315,2.0,5.0,87,0.00,,,0.00,Wunderground v.1.15,2013-03-01 12:06:00,
2013-03-01 06:12:00,27.6,24.2,30.14,NW,313,2.0,8.0,87,0.00,,,0.00,Wunderground v.1.15,2013-03-01 12:12:00,
2013-03-01 06:18:00,27.6,24.5,30.14,NW,313,2.0,8.0,88,0.00,,,0.00,Wunderground v.1.15,2013-03-01 12:18:00,
2013-03-01 06:24:00,27.6,24.5,30.14,NW,311,3.0,6.0,88,0.00,,,0.00,Wunderground v.1.15,2013-03-01 12:24:00,
2013-03-01 06:30:00,27.6,24.5,30.14,NW,312,3.0,3.0,88,0.00,,,0.00,Wunderground v.1.15,2013-03-01 12:30:00,
2013-03-01 06:36:00,27.6,24.5,30.14,NW,311,3.0,4.0,88,0.00,,,0.00,Wunderground v.1.15,2013-03-01 12:36:00,
2013-03-01 06:42:00,27.6,24.5,30.14,NW,309,3.0,3.0,88,0.00,,,0.00,Wunderground v.1.15,2013-03-01 12:42:00,
2013-03-01 06:48:00,27.5,24.4,30.15,NW,308,3.0,3.0,88,0.00,,,0.00,Wunderground v.1.15,2013-03-01 12:48:00,
2013-03-01 06:54:00,27.5,24.4,30.15,NW,304,4.0,6.0,88,0.00,,,0.00,Wunderground v.1.15,2013-03-01 12:54:00,
2013-03-01 07:00:00,27.5,24.4,30.15,NW,309,4.0,4.0,88,0.00,,,0.00,Wunderground v.1.15,2013-03-01 13:00:00,
2013-03-01 07:06:00,27.5,24.4,30.15,NW,308,4.0,8.0,88,0.00,,,0.00,Wunderground v.1.15,2013-03-01 13:06:00,
2013-03-01 07:12:00,27.5,24.4,30.15,NW,309,4.0,6.0,88,0.00,,,0.00,Wunderground v.1.15,2013-03-01 13:12:00,
2013-03-01 07:18:00,27.5,24.4,30.15,NW,309,3.0,6.0,88,0.00,,,0.00,Wunderground v.1.15,2013-03-01 13:18:00,
2013-03-01 07:24:00,27.5,24.1,30.16,NW,309,4.0,6.0,87,0.00,,,0.00,Wunderground v.1.15,2013-03-01 13:24:00,
2013-03-01 07:30:00,27.5,24.1,30.16,NW,319,5.0,6.0,87,0.00,,,0.00,Wunderground v.1.15,2013-03-01 13:30:00,
2013-03-01 07:36:00,27.5,24.1,30.16,NW,314,5.0,6.0,87,0.00,,,0.00,Wunderground v.1.15,2013-03-01 13:36:00,
2013-03-01 07:42:00,27.5,24.1,30.16,NW,315,4.0,6.0,87,0.00,,,0.00,Wunderground v.1.15,2013-03-01 13:42:00,
2013-03-01 07:48:00,27.6,24.2,30.16,NNW,327,4.0,9.0,87,0.00,,,0.00,Wunderground v.1.15,2013-03-01 13:48:00,
2013-03-01 07:54:00,27.6,24.2,30.16,NW,321,5.0,6.0,87,0.00,,,0.00,Wunderground v.1.15,2013-03-01 13:54:00,
2013-03-01 08:00:00,27.7,24.3,30.16,NW,322,4.0,4.0,87,0.00,,,0.00,Wunderground v.1.15,2013-03-01 14:00:00,
2013-03-01 08:06:00,27.7,24.3,30.16,NW,317,3.0,9.0,87,0.00,,,0.00,Wunderground v.1.15,2013-03-01 14:06:00,
2013-03-01 08:12:00,27.8,24.4,30.16,NW,325,4.0,9.0,87,0.00,,,0.00,Wunderground v.1.15,2013-03-01 14:12:00,
2013-03-01 08:18:00,27.9,24.5,30.17,NNW,336,4.0,9.0,87,0.00,,,0.00,Wunderground v.1.15,2013-03-01 14:18:00,
2013-03-01 08:24:00,27.9,24.5,30.16,NW,322,5.0,9.0,87,0.00,,,0.00,Wunderground v.1.15,2013-03-01 14:24:00,
2013-03-01 08:30:00,27.9,24.5,30.16,NW,319,5.0,5.0,87,0.00,,,0.00,Wunderground v.1.15,2013-03-01 14:30:00,
2013-03-01 08:36:00,28.0,24.6,30.16,NNW,334,4.0,6.0,87,0.00,,,0.00,Wunderground v.1.15,2013-03-01 14:36:00,
2013-03-01 08:42:00,28.1,24.7,30.16,NW,325,5.0,7.0,87,0.00,,,0.00,Wunderground v.1.15,2013-03-01 14:42:00,
2013-03-01 08:48:00,28.1,24.7,30.16,WNW,300,6.0,12.0,87,0.00,,,0.00,Wunderground v.1.15,2013-03-01 14:48:00,
2013-03-01 08:54:00,28.1,24.7,30.16,North,350,5.0,6.0,87,0.00,,,0.00,Wunderground v.1.15,2013-03-01 14:54:00,
2013-03-01 09:00:00,28.2,24.8,30.16,WNW,291,5.0,7.0,87,0.00,,,0.00,Wunderground v.1.15,2013-03-01 15:00:00,
2013-03-01 09:06:00,28.2,24.8,30.16,NW,322,5.0,7.0,87,0.00,,,0.00,Wunderground v.1.15,2013-03-01 15:06:00,
2013-03-01 09:12:00,28.2,24.8,30.16,NW,311,6.0,9.0,87,0.00,,,0.00,Wunderground v.1.15,2013-03-01 15:12:00,
2013-03-01 09:18:00,28.3,24.9,30.16,WNW,302,5.0,10.0,87,0.00,,,0.00,Wunderground v.1.15,2013-03-01 15:18:00,
2013-03-01 09:24:00,28.3,24.9,30.17,NW,317,6.0,8.0,87,0.00,,,0.00,Wunderground v.1.15,2013-03-01 15:24:00,
2013-03-01 09:30:00,28.3,24.9,30.17,NW,323,6.0,6.0,87,0.00,,,0.00,Wunderground v.1.15,2013-03-01 15:30:00,
2013-03-01 09:36:00,28.4,25.3,30.17,NW,311,4.0,7.0,88,0.00,,,0.00,Wunderground v.1.15,2013-03-01 15:36:00,
2013-03-01 09:42:00,28.6,25.2,30.17,NNW,332,4.0,7.0,87,0.00,,,0.00,Wunderground v.1.15,2013-03-01 15:42:00,
2013-03-01 09:48:00,28.6,25.2,30.17,NW,321,6.0,9.0,87,0.00,,,0.00,Wunderground v.1.15,2013-03-01 15:48:00,
2013-03-01 09:54:00,28.5,25.1,30.17,NW,311,6.0,8.0,87,0.00,,,0.00,Wunderground v.1.15,2013-03-01 15:54:00,
2013-03-01 10:00:00,28.7,25.6,30.17,NW,318,5.0,7.0,88,0.00,,,0.00,Wunderground v.1.15,2013-03-01 16:00:00,
2013-03-01 10:06:00,28.7,25.3,30.17,NW,309,6.0,7.0,87,0.00,,,0.00,Wunderground v.1.15,2013-03-01 16:06:00,
2013-03-01 10:12:00,28.8,25.7,30.17,NNW,337,5.0,8.0,88,0.00,,,0.00,Wunderground v.1.15,2013-03-01 16:12:00,
2013-03-01 10:18:00,28.9,25.8,30.17,NW,308,4.0,8.0,88,0.00,,,0.00,Wunderground v.1.15,2013-03-01 16:18:00,
2013-03-01 10:24:00,28.9,25.5,30.17,WNW,303,5.0,6.0,87,0.00,,,0.00,Wunderground v.1.15,2013-03-01 16:24:00,
2013-03-01 10:30:00,28.8,25.4,30.17,NW,323,6.0,6.0,87,0.00,,,0.00,Wunderground v.1.15,2013-03-01 16:30:00,
2013-03-01 10:36:00,28.8,25.7,30.17,NW,313,6.0,7.0,88,0.00,,,0.00,Wunderground v.1.15,2013-03-01 16:36:00,
2013-03-01 10:42:00,28.9,25.8,30.18,NNW,329,5.0,6.0,88,0.00,,,0.00,Wunderground v.1.15,2013-03-01 16:42:00,
2013-03-01 10:48:00,29.0,25.9,30.18,NNW,329,5.0,8.0,88,0.00,,,0.00,Wunderground v.1.15,2013-03-01 16:48:00,
2013-03-01 10:54:00,28.9,25.5,30.18,WNW,295,6.0,7.0,87,0.00,,,0.00,Wunderground v.1.15,2013-03-01 16:54:00,
2013-03-01 11:00:00,28.9,25.8,30.18,NW,306,6.0,7.0,88,0.00,,,0.00,Wunderground v.1.15,2013-03-01 17:00:00,
2013-03-01 11:06:00,29.1,26.0,30.18,NNW,331,5.0,7.0,88,0.00,,,0.00,Wunderground v.1.15,2013-03-01 17:06:00,
2013-03-01 11:12:00,29.2,26.1,30.18,NNW,342,5.0,7.0,88,0.00,,,0.00,Wunderground v.1.15,2013-03-01 17:12:00,
2013-03-01 11:18:00,29.2,25.8,30.18,NNW,329,6.0,7.0,87,0.00,,,0.00,Wunderground v.1.15,2013-03-01 17:18:00,
2013-03-01 11:24:00,29.2,26.1,30.18,NNW,342,5.0,7.0,88,0.00,,,0.00,Wunderground v.1.15,2013-03-01 17:24:00,
2013-03-01 11:30:00,29.3,26.2,30.18,NW,325,4.0,7.0,88,0.00,,,0.00,Wunderground v.1.15,2013-03-01 17:30:00,
2013-03-01 11:36:00,29.3,26.2,30.18,NNW,337,6.0,7.0,88,0.00,,,0.01,Wunderground v.1.15,2013-03-01 17:36:00,
2013-03-01 11:42:00,29.4,26.3,30.18,NNE,25,6.0,11.0,88,0.00,,,0.01,Wunderground v.1.15,2013-03-01 17:42:00,
2013-03-01 11:48:00,29.5,26.4,30.18,North,351,5.0,11.0,88,0.00,,,0.01,Wunderground v.1.15,2013-03-01 17:48:00,
2013-03-01 11:54:00,29.5,26.4,30.18,North,10,5.0,10.0,88,0.00,,,0.01,Wunderground v.1.15,2013-03-01 17:54:00,
2013-03-01 12:00:00,29.5,26.4,30.18,North,349,5.0,5.0,88,0.00,,,0.01,Wunderground v.1.15,2013-03-01 18:00:00,
2013-03-01 12:06:00,29.6,26.2,30.18,North,360,5.0,6.0,87,0.00,,,0.01,Wunderground v.1.15,2013-03-01 18:06:00,
2013-03-01 12:12:00,29.8,26.7,30.18,NNW,341,5.0,8.0,88,0.00,,,0.01,Wunderground v.1.15,2013-03-01 18:12:00,
2013-03-01 12:18:00,29.9,26.5,30.18,North,5,5.0,9.0,87,0.00,,,0.01,Wunderground v.1.15,2013-03-01 18:18:00,
2013-03-01 12:24:00,29.9,26.5,30.18,North,5,5.0,6.0,87,0.00,,,0.01,Wunderground v.1.15,2013-03-01 18:24:00,
2013-03-01 12:30:00,29.9,26.5,30.17,North,355,5.0,5.0,87,0.00,,,0.01,Wunderground v.1.15,2013-03-01 18:30:00,
2013-03-01 12:36:00,30.1,27.0,30.17,North,360,5.0,5.0,88,0.00,,,0.02,Wunderground v.1.15,2013-03-01 18:36:00,
2013-03-01 12:42:00,30.2,26.8,30.17,NNW,342,5.0,5.0,87,0.00,,,0.02,Wunderground v.1.15,2013-03-01 18:42:00,
2013-03-01 12:48:00,30.3,26.9,30.17,North,5,5.0,12.0,87,0.00,,,0.02,Wunderground v.1.15,2013-03-01 18:48:00,
2013-03-01 12:54:00,30.3,26.9,30.17,NNW,348,5.0,7.0,87,0.00,,,0.02,Wunderground v.1.15,2013-03-01 18:54:00,
2013-03-01 13:00:00,30.3,26.9,30.17,North,355,5.0,5.0,87,0.00,,,0.02,Wunderground v.1.15,2013-03-01 19:00:00,
2013-03-01 13:06:00,30.5,27.1,30.17,North,11,5.0,12.0,87,0.00,,,0.02,Wunderground v.1.15,2013-03-01 19:06:00,
2013-03-01 13:12:00,30.5,27.1,30.17,NNE,19,6.0,12.0,87,0.00,,,0.02,Wunderground v.1.15,2013-03-01 19:12:00,
2013-03-01 13:18:00,30.5,27.1,30.17,North,360,5.0,12.0,87,0.00,,,0.02,Wunderground v.1.15,2013-03-01 19:18:00,
2013-03-01 13:24:00,30.6,27.2,30.17,NNE,24,5.0,12.0,87,0.00,,,0.02,Wunderground v.1.15,2013-03-01 19:24:00,
2013-03-01 13:30:00,30.7,27.3,30.17,North,355,4.0,12.0,87,0.00,,,0.03,Wunderground v.1.15,2013-03-01 19:30:00,
2013-03-01 13:36:00,30.7,27.3,30.17,NNE,17,4.0,12.0,87,0.00,,,0.03,Wunderground v.1.15,2013-03-01 19:36:00,
2013-03-01 13:42:00,30.6,27.2,30.17,NNE,17,5.0,12.0,87,0.00,,,0.03,Wunderground v.1.15,2013-03-01 19:42:00,
2013-03-01 13:48:00,30.6,27.2,30.17,NNW,341,5.0,12.0,87,0.00,,,0.03,Wunderground v.1.15,2013-03-01 19:48:00,
2013-03-01 13:54:00,30.6,27.2,30.17,North,355,5.0,12.0,87,0.00,,,0.03,Wunderground v.1.15,2013-03-01 19:54:00,
2013-03-01 14:00:00,30.7,27.3,30.17,NNW,348,5.0,12.0,87,0.00,,,0.04,Wunderground v.1.15,2013-03-01 20:00:00,
2013-03-01 14:06:00,30.7,27.3,30.17,NNW,346,6.0,12.0,87,0.00,,,0.04,Wunderground v.1.15,2013-03-01 20:06:00,
2013-03-01 14:12:00,30.6,26.9,30.17,NNW,348,6.0,12.0,86,0.00,,,0.04,Wunderground v.1.15,2013-03-01 20:12:00,
2013-03-01 14:18:00,30.6,26.9,30.17,North,360,6.0,12.0,86,0.00,,,0.04,Wunderground v.1.15,2013-03-01 20:18:00,
2013-03-01 14:24:00,30.5,26.8,30.17,NNW,342,6.0,12.0,86,0.00,,,0.04,Wunderground v.1.15,2013-03-01 20:24:00,
2013-03-01 14:30:00,30.5,26.8,30.18,NNW,344,5.0,12.0,86,0.00,,,0.04,Wunderground v.1.15,2013-03-01 20:30:00,
2013-03-01 14:36:00,30.5,26.8,30.18,North,5,5.0,12.0,86,0.00,,,0.04,Wunderground v.1.15,2013-03-01 20:36:00,
2013-03-01 14:42:00,30.4,26.7,30.17,NNW,340,6.0,6.0,86,0.00,,,0.04,Wunderground v.1.15,2013-03-01 20:42:00,
2013-03-01 14:48:00,30.5,26.8,30.18,North,355,6.0,12.0,86,0.00,,,0.04,Wunderground v.1.15,2013-03-01 20:48:00,
2013-03-01 14:54:00,30.5,26.8,30.18,North,11,6.0,13.0,86,0.00,,,0.04,Wunderground v.1.15,2013-03-01 20:54:00,
2013-03-01 15:00:00,30.5,26.8,30.18,North,351,6.0,6.0,86,0.00,,,0.04,Wunderground v.1.15,2013-03-01 21:00:00,
2013-03-01 15:06:00,30.4,26.7,30.18,NNW,345,5.0,6.0,86,0.00,,,0.05,Wunderground v.1.15,2013-03-01 21:06:00,
2013-03-01 15:12:00,30.4,26.7,30.18,NNE,16,5.0,6.0,86,0.00,,,0.05,Wunderground v.1.15,2013-03-01 21:12:00,
2013-03-01 15:18:00,30.5,26.8,30.18,NNE,15,5.0,8.0,86,0.00,,,0.05,Wunderground v.1.15,2013-03-01 21:18:00,
2013-03-01 15:24:00,30.4,26.7,30.18,North,349,6.0,6.0,86,0.00,,,0.05,Wunderground v.1.15,2013-03-01 21:24:00,
2013-03-01 15:30:00,30.4,26.7,30.18,NNE,14,5.0,5.0,86,0.00,,,0.05,Wunderground v.1.15,2013-03-01 21:30:00,
2013-03-01 15:36:00,30.4,26.7,30.18,North,355,6.0,8.0,86,0.00,,,0.06,Wunderground v.1.15,2013-03-01 21:36:00,
2013-03-01 15:42:00,30.2,26.5,30.18,North,355,6.0,6.0,86,0.00,,,0.06,Wunderground v.1.15,2013-03-01 21:42:00,
2013-03-01 15:48:00,30.1,26.4,30.19,North,351,5.0,6.0,86,0.00,,,0.06,Wunderground v.1.15,2013-03-01 21:48:00,
2013-03-01 15:54:00,30.1,26.7,30.19,North,355,5.0,11.0,87,0.00,,,0.06,Wunderground v.1.15,2013-03-01 21:54:00,
2013-03-01 16:00:00,30.0,26.6,30.19,NNE,15,6.0,13.0,87,0.00,,,0.06,Wunderground v.1.15,2013-03-01 22:00:00,
2013-03-01 16:06:00,29.9,26.2,30.19,NNE,13,5.0,13.0,86,0.00,,,0.06,Wunderground v.1.15,2013-03-01 22:06:00,
2013-03-01 16:12:00,29.9,26.2,30.19,NNW,334,4.0,6.0,86,0.00,,,0.06,Wunderground v.1.15,2013-03-01 22:12:00,
2013-03-01 16:18:00,29.9,26.5,30.19,NNW,342,4.0,13.0,87,0.00,,,0.06,Wunderground v.1.15,2013-03-01 22:18:00,
2013-03-01 16:24:00,30.0,26.6,30.19,NNW,333,3.0,9.0,87,0.00,,,0.06,Wunderground v.1.15,2013-03-01 22:24:00,
2013-03-01 16:30:00,30.0,26.6,30.19,NW,319,4.0,4.0,87,0.00,,,0.06,Wunderground v.1.15,2013-03-01 22:30:00,
2013-03-01 16:36:00,30.0,26.6,30.20,NNW,327,3.0,13.0,87,0.00,,,0.06,Wunderground v.1.15,2013-03-01 22:36:00,
2013-03-01 16:42:00,30.0,26.6,30.20,NNE,19,4.0,13.0,87,0.00,,,0.06,Wunderground v.1.15,2013-03-01 22:42:00,
2013-03-01 16:48:00,30.0,26.6,30.20,NNE,20,4.0,13.0,87,0.00,,,0.06,Wunderground v.1.15,2013-03-01 22:48:00,
2013-03-01 16:54:00,29.9,26.2,30.20,NNW,345,4.0,13.0,86,0.00,,,0.06,Wunderground v.1.15,2013-03-01 22:54:00,
2013-03-01 17:00:00,29.8,26.1,30.20,NNE,13,3.0,13.0,86,0.00,,,0.06,Wunderground v.1.15,2013-03-01 23:00:00,
2013-03-01 17:06:00,29.7,26.0,30.21,North,360,5.0,13.0,86,0.00,,,0.06,Wunderground v.1.15,2013-03-01 23:06:00,
2013-03-01 17:12:00,29.6,25.9,30.21,NNW,327,6.0,13.0,86,0.00,,,0.06,Wunderground v.1.15,2013-03-01 23:12:00,
2013-03-01 17:18:00,29.5,25.8,30.21,North,360,5.0,13.0,86,0.00,,,0.06,Wunderground v.1.15,2013-03-01 23:18:00,
2013-03-01 17:24:00,29.4,25.7,30.21,NNW,345,4.0,13.0,86,0.00,,,0.06,Wunderground v.1.15,2013-03-01 23:24:00,
2013-03-01 17:30:00,29.3,25.6,30.21,NNW,342,5.0,13.0,86,0.00,,,0.06,Wunderground v.1.15,2013-03-01 23:30:00,
2013-03-01 17:36:00,29.2,25.5,30.21,North,360,5.0,13.0,86,0.00,,,0.06,Wunderground v.1.15,2013-03-01 23:36:00,
2013-03-01 17:42:00,29.0,25.3,30.22,NNW,346,5.0,13.0,86,0.00,,,0.06,Wunderground v.1.15,2013-03-01 23:42:00,
2013-03-01 17:48:00,29.0,25.3,30.22,NNW,338,4.0,13.0,86,0.00,,,0.06,Wunderground v.1.15,2013-03-01 23:48:00,
2013-03-01 17:54:00,28.9,25.2,30.22,NNW,337,3.0,13.0,86,0.00,,,0.06,Wunderground v.1.15,2013-03-01 23:54:00,
2013-03-01 18:00:00,28.8,25.1,30.22,NNW,346,3.0,3.0,86,0.00,,,0.06,Wunderground v.1.15,2013-03-02 00:00:00,
2013-03-01 18:06:00,28.8,25.1,30.23,NNW,340,4.0,6.0,86,0.00,,,0.06,Wunderground v.1.15,2013-03-02 00:06:00,
2013-03-01 18:12:00,28.7,25.0,30.23,North,355,5.0,5.0,86,0.00,,,0.06,Wunderground v.1.15,2013-03-02 00:12:00,
2013-03-01 18:18:00,28.6,24.9,30.23,North,11,5.0,6.0,86,0.00,,,0.06,Wunderground v.1.15,2013-03-02 00:18:00,
2013-03-01 18:24:00,28.4,24.7,30.23,North,360,5.0,6.0,86,0.00,,,0.06,Wunderground v.1.15,2013-03-02 00:24:00,
2013-03-01 18:30:00,28.3,24.6,30.23,NNE,26,5.0,9.0,86,0.00,,,0.06,Wunderground v.1.15,2013-03-02 00:30:00,
2013-03-01 18:36:00,28.1,24.5,30.23,NNE,22,6.0,9.0,86,0.00,,,0.06,Wunderground v.1.15,2013-03-02 00:36:00,
2013-03-01 18:42:00,28.0,24.4,30.24,NNE,12,4.0,5.0,86,0.00,,,0.06,Wunderground v.1.15,2013-03-02 00:42:00,
2013-03-01 18:48:00,27.9,24.3,30.24,North,9,3.0,5.0,86,0.00,,,0.06,Wunderground v.1.15,2013-03-02 00:48:00,
2013-03-01 18:54:00,27.8,24.2,30.24,North,5,3.0,4.0,86,0.00,,,0.06,Wunderground v.1.15,2013-03-02 00:54:00,
2013-03-01 19:00:00,27.8,24.2,30.24,North,5,3.0,3.0,86,0.00,,,0.06,Wunderground v.1.15,2013-03-02 01:00:00,
2013-03-01 19:06:00,27.7,24.1,30.24,NNE,17,4.0,9.0,86,0.00,,,0.06,Wunderground v.1.15,2013-03-02 01:06:00,
2013-03-01 19:12:00,27.5,23.9,30.24,North,360,5.0,5.0,86,0.00,,,0.06,Wunderground v.1.15,2013-03-02 01:12:00,
2013-03-01 19:18:00,27.5,23.9,30.24,North,355,5.0,9.0,86,0.00,,,0.06,Wunderground v.1.15,2013-03-02 01:18:00,
2013-03-01 19:24:00,27.4,23.8,30.24,North,355,4.0,9.0,86,0.00,,,0.06,Wunderground v.1.15,2013-03-02 01:24:00,
2013-03-01 19:30:00,27.3,23.7,30.24,North,355,3.0,9.0,86,0.00,,,0.06,Wunderground v.1.15,2013-03-02 01:30:00,
2013-03-01 19:36:00,27.2,23.6,30.24,North,355,3.0,9.0,86,0.00,,,0.06,Wunderground v.1.15,2013-03-02 01:36:00,
2013-03-01 19:42:00,27.2,23.6,30.25,North,360,3.0,9.0,86,0.00,,,0.06,Wunderground v.1.15,2013-03-02 01:42:00,
2013-03-01 19:48:00,27.1,23.5,30.25,North,360,3.0,9.0,86,0.00,,,0.06,Wunderground v.1.15,2013-03-02 01:48:00,
2013-03-01 19:54:00,27.0,23.4,30.25,North,355,3.0,9.0,86,0.00,,,0.06,Wunderground v.1.15,2013-03-02 01:54:00,
2013-03-01 20:00:00,26.9,23.3,30.25,NNW,344,4.0,4.0,86,0.00,,,0.06,Wunderground v.1.15,2013-03-02 02:00:00,
2013-03-01 20:06:00,26.7,23.1,30.25,North,355,4.0,9.0,86,0.00,,,0.06,Wunderground v.1.15,2013-03-02 02:06:00,
2013-03-01 20:12:00,26.6,23.0,30.25,NNW,348,4.0,9.0,86,0.00,,,0.06,Wunderground v.1.15,2013-03-02 02:12:00,
2013-03-01 20:18:00,26.4,22.8,30.25,NNW,342,4.0,9.0,86,0.00,,,0.06,Wunderground v.1.15,2013-03-02 02:18:00,
2013-03-01 20:24:00,26.2,22.6,30.25,NNE,12,4.0,9.0,86,0.00,,,0.06,Wunderground v.1.15,2013-03-02 02:24:00,
2013-03-01 20:30:00,26.0,22.4,30.25,NNW,345,4.0,9.0,86,0.00,,,0.06,Wunderground v.1.15,2013-03-02 02:30:00,
2013-03-01 20:36:00,25.9,22.3,30.26,North,355,4.0,9.0,86,0.00,,,0.06,Wunderground v.1.15,2013-03-02 02:36:00,
2013-03-01 20:42:00,25.8,22.2,30.26,North,351,3.0,9.0,86,0.00,,,0.06,Wunderground v.1.15,2013-03-02 02:42:00,
2013-03-01 20:48:00,25.8,22.2,30.26,NNW,348,3.0,9.0,86,0.00,,,0.06,Wunderground v.1.15,2013-03-02 02:48:00,
2013-03-01 20:54:00,25.7,22.1,30.26,North,350,3.0,9.0,86,0.00,,,0.06,Wunderground v.1.15,2013-03-02 02:54:00,
2013-03-01 21:00:00,25.6,22.0,30.26,NNW,345,3.0,3.0,86,0.00,,,0.06,Wunderground v.1.15,2013-03-02 03:00:00,
2013-03-01 21:06:00,25.5,21.9,30.26,NNW,346,3.0,4.0,86,0.00,,,0.06,Wunderground v.1.15,2013-03-02 03:06:00,
2013-03-01 21:12:00,25.5,21.9,30.26,NNW,346,3.0,5.0,86,0.00,,,0.06,Wunderground v.1.15,2013-03-02 03:12:00,
2013-03-01 21:18:00,25.4,21.8,30.27,NNW,348,3.0,5.0,86,0.00,,,0.06,Wunderground v.1.15,2013-03-02 03:18:00,
2013-03-01 21:24:00,25.4,21.8,30.26,North,350,3.0,5.0,86,0.00,,,0.06,Wunderground v.1.15,2013-03-02 03:24:00,
2013-03-01 21:30:00,25.3,21.7,30.27,NNW,348,3.0,3.0,86,0.00,,,0.06,Wunderground v.1.15,2013-03-02 03:30:00,
2013-03-01 21:36:00,25.2,21.6,30.26,NNW,348,3.0,4.0,86,0.00,,,0.06,Wunderground v.1.15,2013-03-02 03:36:00,
2013-03-01 21:42:00,25.1,21.5,30.27,NNW,346,3.0,4.0,86,0.00,,,0.06,Wunderground v.1.15,2013-03-02 03:42:00,
2013-03-01 21:48:00,24.9,21.0,30.27,NNW,345,3.0,4.0,85,0.00,,,0.06,Wunderground v.1.15,2013-03-02 03:48:00,
2013-03-01 21:54:00,24.8,21.2,30.26,NNE,14,3.0,5.0,86,0.00,,,0.06,Wunderground v.1.15,2013-03-02 03:54:00,
2013-03-01 22:00:00,24.6,21.0,30.27,NNE,15,4.0,10.0,86,0.00,,,0.06,Wunderground v.1.15,2013-03-02 04:00:00,
2013-03-01 22:06:00,24.5,20.9,30.27,NNE,12,4.0,10.0,86,0.00,,,0.06,Wunderground v.1.15,2013-03-02 04:06:00,
2013-03-01 22:12:00,24.3,20.7,30.27,North,360,4.0,10.0,86,0.00,,,0.06,Wunderground v.1.15,2013-03-02 04:12:00,
2013-03-01 22:18:00,24.2,20.3,30.27,North,360,3.0,10.0,85,0.00,,,0.06,Wunderground v.1.15,2013-03-02 04:18:00,
2013-03-01 22:24:00,24.1,20.2,30.27,North,360,2.0,10.0,85,0.00,,,0.06,Wunderground v.1.15,2013-03-02 04:24:00,
2013-03-01 22:30:00,24.0,20.1,30.27,North,350,3.0,10.0,85,0.00,,,0.06,Wunderground v.1.15,2013-03-02 04:30:00,
2013-03-01 22:36:00,24.0,20.4,30.27,NNW,346,3.0,10.0,86,0.00,,,0.06,Wunderground v.1.15,2013-03-02 04:36:00,
2013-03-01 22:42:00,24.0,20.4,30.27,NNW,342,4.0,10.0,86,0.00,,,0.06,Wunderground v.1.15,2013-03-02 04:42:00,
2013-03-01 22:48:00,24.0,20.4,30.27,North,5,4.0,10.0,86,0.00,,,0.06,Wunderground v.1.15,2013-03-02 04:48:00,
2013-03-01 22:54:00,24.0,20.4,30.27,NNW,342,3.0,10.0,86,0.00,,,0.06,Wunderground v.1.15,2013-03-02 04:54:00,
2013-03-01 23:00:00,24.0,20.4,30.27,NNW,345,3.0,10.0,86,0.00,,,0.06,Wunderground v.1.15,2013-03-02 05:00:00,
2013-03-01 23:02:00,24.0,20.4,30.27,NNW,345,3.0,10.0,86,0.00,,,0.06,Wunderground v.1.15,2013-03-02 05:02:00,
2013-03-01 23:04:00,24.1,20.5,30.27,NNW,336,3.0,10.0,86,0.00,,,0.06,Wunderground v.1.15,2013-03-02 05:04:00,
2013-03-01 23:06:00,24.1,20.5,30.27,NNW,336,3.0,10.0,86,0.00,,,0.06,Wunderground v.1.15,2013-03-02 05:06:00,
2013-03-01 23:12:00,24.0,20.1,30.27,NNW,340,3.0,10.0,85,0.00,,,0.06,Wunderground v.1.15,2013-03-02 05:12:00,
2013-03-01 23:18:00,24.1,20.2,30.27,NNW,342,3.0,10.0,85,0.00,,,0.06,Wunderground v.1.15,2013-03-02 05:18:00,
2013-03-01 23:24:00,24.1,20.2,30.27,NNW,346,3.0,10.0,85,0.00,,,0.06,Wunderground v.1.15,2013-03-02 05:24:00,
2013-03-01 23:30:00,24.1,20.2,30.27,NNW,342,3.0,10.0,85,0.00,,,0.06,Wunderground v.1.15,2013-03-02 05:30:00,
2013-03-01 23:36:00,24.1,20.2,30.27,NNW,344,4.0,10.0,85,0.00,,,0.06,Wunderground v.1.15,2013-03-02 05:36:00,
2013-03-01 23:42:00,24.0,20.1,30.27,NNW,342,3.0,10.0,85,0.00,,,0.06,Wunderground v.1.15,2013-03-02 05:42:00,
2013-03-01 23:48:00,23.9,20.0,30.27,NNW,342,3.0,10.0,85,0.00,,,0.06,Wunderground v.1.15,2013-03-02 05:48:00,
2013-03-01 23:54:00,23.8,19.9,30.27,NNW,342,2.0,4.0,85,0.00,,,0.06,Wunderground v.1.15,2013-03-02 05:54:00,